Date String (YYYY-MM-DD hh:mm:ss) UTC,Instrument flags,Ambient pressure (hPa),Sample flow (lpm),Bypass flow (lpm),Sample temperature (°C),Ambient temperature (°C),ASC tube jacket temperature (°C),LED temperature (°C),Box temperature (°C),Sample RH (%),Span deviation,Mass concentration (μg/m³),Mass concentration (μg/m³),Mass concentration (μg/m³)
DateTimeUTC,F1_M11,P_M11,Q1_M11,Q2_M11,T1_M11,T2_M11,T3_M11,T4_M11,T5_M11,U1_M11,ZSPAN_M11,X2_M11,X0_M11,X1_M11
2023-02-19 19:00:00,,0820.6,5.00,0.00,21.7,20.4,00.0,30.6,23.5,13.4,0000.0,0002.10,0003.95,0001.36
2023-02-19 19:01:00,,0820.6,5.02,0.00,21.7,20.4,00.0,30.6,23.6,13.3,0000.0,0002.09,0003.92,0001.37
2023-02-19 19:02:00,,0820.6,5.00,0.00,21.8,20.5,00.0,30.6,23.6,13.2,0000.0,0002.10,0003.95,0001.37
2023-02-19 19:03:00,,0820.6,5.02,0.00,21.8,20.5,00.0,30.6,23.6,13.4,0000.0,0002.10,0003.91,0001.37
2023-02-19 19:04:00,,0820.7,5.00,0.00,21.8,20.5,00.0,30.6,23.6,13.4,0000.0,0002.12,0003.96,0001.36
2023-02-19 19:05:00,,0820.7,4.98,0.00,21.8,20.6,00.0,30.6,23.6,13.3,0000.0,0002.18,0004.43,0001.35
2023-02-19 19:06:00,,0820.7,4.98,0.00,21.8,20.6,00.0,30.6,23.7,13.6,0000.0,0002.19,0004.67,0001.35
2023-02-19 19:07:00,,0820.7,5.04,0.00,21.8,20.6,00.0,30.6,23.7,13.2,0000.0,0002.18,0004.73,0001.35
2023-02-19 19:08:00,,0820.7,5.01,0.00,21.8,20.6,00.0,30.6,23.7,13.1,0000.0,0002.15,0004.69,0001.34
2023-02-19 19:09:00,,0820.6,5.00,0.00,21.9,20.6,00.0,30.6,23.7,13.0,0000.0,0002.12,0004.60,0001.33
2023-02-19 19:10:00,,0820.6,4.99,0.00,21.9,20.6,00.0,30.7,23.7,13.0,0000.0,0002.10,0004.43,0001.33
2023-02-19 19:11:00,,0820.6,4.96,0.00,21.9,20.6,00.0,30.7,23.7,13.1,0000.0,0002.13,0004.49,0001.33
2023-02-19 19:12:00,,0820.5,4.99,0.00,21.9,20.6,00.0,30.7,23.8,12.8,0000.0,0002.09,0004.37,0001.32
2023-02-19 19:13:00,,0820.6,5.01,0.00,21.9,20.7,00.0,30.7,23.8,12.8,0000.0,0002.13,0004.44,0001.33
2023-02-19 19:14:00,,0820.6,5.00,0.00,21.9,20.7,00.0,30.7,23.8,12.9,0000.0,0002.13,0004.44,0001.33
2023-02-19 19:15:00,,0820.7,4.99,0.00,21.9,20.7,00.0,30.7,23.8,12.6,0000.0,0002.07,0004.23,0001.32
2023-02-19 19:16:00,,0820.7,5.00,0.00,21.9,20.7,00.0,30.7,23.8,12.5,0000.0,0002.00,0003.77,0001.33
2023-02-19 19:17:00,,0820.6,4.98,0.00,21.9,20.7,00.0,30.7,23.8,11.9,0000.0,0001.95,0003.44,0001.33
2023-02-19 19:18:00,,0820.5,4.98,0.00,21.9,20.7,00.0,30.7,23.8,12.0,0000.0,0001.99,0003.54,0001.33
2023-02-19 19:19:00,,0820.4,5.02,0.00,21.9,20.7,00.0,30.7,23.8,12.0,0000.0,0001.94,0003.25,0001.31
2023-02-19 19:20:00,,0820.4,5.00,0.00,21.9,20.6,00.0,30.8,23.8,12.6,0000.0,0001.98,0003.37,0001.30
2023-02-19 19:21:00,,0820.5,5.01,0.00,21.9,20.6,00.0,30.8,23.8,13.4,0000.0,0001.97,0003.40,0001.29
2023-02-19 19:22:00,,0820.6,5.01,0.00,21.9,20.6,00.0,30.8,23.8,13.5,0000.0,0001.93,0003.36,0001.29
2023-02-19 19:23:00,,0820.6,5.00,0.00,21.9,20.6,00.0,30.8,23.8,12.7,0000.0,0001.97,0004.10,0001.29
2023-02-19 19:24:00,,0820.6,4.99,0.00,21.9,20.6,00.0,30.8,23.8,12.9,0000.0,0001.97,0005.09,0001.28
2023-02-19 19:25:00,,0820.6,5.00,0.00,22.0,20.6,00.0,30.8,23.8,12.4,0000.0,0001.98,0005.58,0001.27
2023-02-19 19:26:00,,0820.4,4.99,0.00,22.0,20.6,00.0,30.8,23.8,11.7,0000.0,0002.03,0005.80,0001.26
2023-02-19 19:27:00,,0820.2,5.01,0.00,21.9,20.5,00.0,30.8,23.7,11.7,0000.0,0002.05,0005.91,0001.25
2023-02-19 19:28:00,,0820.2,4.99,0.00,21.9,20.5,00.0,30.8,23.7,12.0,0000.0,0002.06,0006.47,0001.24
2023-02-19 19:29:00,,0820.2,5.01,0.00,21.9,20.5,00.0,30.8,23.7,11.0,0000.0,0002.03,0006.39,0001.24
2023-02-19 19:30:00,,0820.0,4.99,0.00,21.9,20.5,00.0,30.8,23.7,10.8,0000.0,0002.01,0006.43,0001.24
2023-02-19 19:31:00,,0820.1,5.00,0.00,21.9,20.4,00.0,30.8,23.7,11.1,0000.0,0001.97,0006.36,0001.23
2023-02-19 19:32:00,,0820.0,5.00,0.00,21.9,20.3,00.0,30.8,23.6,11.1,0000.0,0001.94,0006.33,0001.21
2023-02-19 19:33:00,,0820.1,5.00,0.00,21.9,20.3,00.0,30.8,23.6,11.1,0000.0,0001.99,0006.56,0001.20
2023-02-19 19:34:00,,0820.1,4.99,0.00,21.8,20.2,00.0,30.8,23.5,11.0,0000.0,0001.98,0006.37,0001.19
2023-02-19 19:35:00,,0820.2,4.99,0.00,21.8,20.2,00.0,30.8,23.5,11.3,0000.0,0001.95,0006.05,0001.18
2023-02-19 19:36:00,,0820.2,5.00,0.00,21.8,20.1,00.0,30.8,23.4,11.3,0000.0,0001.93,0006.07,0001.18
2023-02-19 19:37:00,,0820.2,5.01,0.00,21.8,20.1,00.0,30.7,23.4,11.0,0000.0,0001.91,0006.94,0001.19
2023-02-19 19:38:00,,0820.2,4.98,0.00,21.7,20.0,00.0,30.7,23.3,11.4,0000.0,0001.85,0007.19,0001.18
2023-02-19 19:39:00,,0820.1,4.99,0.00,21.7,20.0,00.0,30.7,23.3,11.2,0000.0,0001.82,0006.68,0001.16
2023-02-19 19:40:00,,0819.9,5.01,0.00,21.7,19.9,00.0,30.7,23.3,10.1,0000.0,0001.79,0006.54,0001.15
2023-02-19 19:41:00,,0819.9,5.00,0.00,21.7,19.9,00.0,30.7,23.4,10.3,0000.0,0001.81,0006.56,0001.15
2023-02-19 19:42:00,,0819.9,4.94,0.00,21.6,19.9,00.0,30.7,23.4,09.9,0000.0,0001.83,0006.66,0001.15
2023-02-19 19:43:00,,0820.0,5.00,0.00,21.6,19.9,00.0,30.7,23.4,10.1,0000.0,0001.81,0006.61,0001.13
2023-02-19 19:44:00,,0820.1,5.01,0.00,21.6,20.0,00.0,30.7,23.4,10.6,0000.0,0001.74,0006.32,0001.12
2023-02-19 19:45:00,,0820.0,4.99,0.00,21.7,20.5,00.0,30.6,23.5,09.4,0000.0,0001.72,0005.88,0001.11
2023-02-19 19:46:00,,0820.0,4.98,0.00,21.8,21.8,00.0,30.6,23.8,09.1,0000.0,0001.68,0005.18,0001.08
2023-02-19 19:47:00,,0820.0,4.96,0.00,21.9,22.5,00.0,30.6,24.0,09.2,0000.0,0001.63,0004.63,0001.06
2023-02-19 19:48:00,,0819.9,4.99,0.00,22.0,22.2,00.0,30.7,24.0,09.5,0000.0,0001.55,0003.42,0001.04
2023-02-19 19:49:00,,0819.9,5.00,0.00,22.0,21.8,00.0,30.7,23.9,09.5,0000.0,0001.54,0002.92,0001.03
2023-02-19 19:50:00,,0820.0,5.01,0.00,22.0,21.4,00.0,30.7,23.9,09.5,0000.0,0001.54,0002.93,0001.01
2023-02-19 19:51:00,,0820.0,5.01,0.00,22.0,21.2,00.0,30.8,23.8,09.2,0000.0,0001.60,0003.21,0001.00
2023-02-19 19:52:00,,0819.8,5.00,0.00,22.0,21.0,00.0,30.8,23.8,09.1,0000.0,0001.57,0003.19,0000.99
2023-02-19 19:53:00,,0819.9,5.01,0.00,22.0,20.8,00.0,30.8,23.7,09.0,0000.0,0001.51,0002.97,0000.98
2023-02-19 19:54:00,,0819.9,5.00,0.00,22.0,20.7,00.0,30.8,23.7,09.2,0000.0,0001.57,0003.08,0000.99
2023-02-19 19:55:00,,0819.8,5.00,0.00,21.9,20.6,00.0,30.8,23.7,09.8,0000.0,0001.57,0003.05,0000.98
2023-02-19 19:56:00,,0819.9,5.00,0.00,21.9,20.5,00.0,30.8,23.7,09.7,0000.0,0001.50,0002.87,0000.98
2023-02-19 19:57:00,,0819.8,5.00,0.00,21.9,20.5,00.0,30.8,23.7,09.5,0000.0,0001.58,0003.11,0000.99
2023-02-19 19:58:00,,0819.8,5.00,0.00,21.9,20.4,00.0,30.8,23.7,09.6,0000.0,0001.61,0003.30,0001.00
2023-02-19 19:59:00,,0819.7,5.00,0.00,21.9,20.4,00.0,30.8,23.7,09.4,0000.0,0001.62,0003.39,0001.00
